Regional Weather Roundup
Issued by NWS Jackson, KY

Home | Current Version | Previous Version | Graphics & Text | Print | Product List | Glossary On
Versions: 1 2 3 4 5 6 7 8 9 10 11 12 13 14 15 16 17 18 19 20 21 22 23 24 25 26 27 28 29 30 31 32 33 34 35 36 37 38 39 40 41 42 43 44 45 46 47 48 49 50
000
ASUS43 KJKL 261010
RWRJKL

EAST KENTUCKY HOURLY WEATHER ROUNDUP
NATIONAL WEATHER SERVICE JACKSON KY
500 AM EST SUN FEB 26 2017

NOTE: "FAIR" INDICATES FEW OR NO CLOUDS BELOW 12,000 FEET WITH
NO SIGNIFICANT WEATHER AND/OR OBSTRUCTIONS TO VISIBILITY.

* THESE REPORTS ARE NOT UNDER NWS QUALITY CONTROL AND MAY NOT
  REPORT WEATHER SUCH AS PRECIPITATION AND FOG.

KYZ079-080-083-085-087-088-110-112-115-119-120-261100
...EASTERN KENTUCKY...

CITY           SKY/WX    TMP DP  RH WIND       PRES   REMARKS
JACKSON        CLEAR     26  18  71 SW3       30.11R
LONDON         CLEAR     24  20  84 CALM      30.14R
SOMERSET*      PTCLDY    23  23 100 CALM      30.18R
MONTICELLO*    CLEAR     17  14  88 NE7       30.19R WCI   8
WILLIAMSBURG*  SUNNY     23  23 100 CALM      30.15R
MIDDLESBORO*   CLEAR     25  22  91 CALM      30.16R
HARLAN APT*    SUNNY     27  21  80 CALM      30.12R
PIKE CO APT*   CLOUDY    28  19  68 CALM      30.11R
BIG SANDY APT* MOSUNNY   30  20  67 W3        30.12R
MOREHEAD APT*  SUNNY     28  18  64 W5        30.14R WCI  23
ASHLAND*       CLEAR     28  18  64 CALM      30.12R
$$

KYZ035-036-041-042-044-050-067-078-099-261100
...CENTRAL KENTUCKY...

CITY           SKY/WX    TMP DP  RH WIND       PRES   REMARKS
FLEMING/MASON* CLEAR     24  18  77 W7        30.14R WCI  16
DANVILLE*      CLEAR     25  19  80 W3        30.16R
LEXINGTON      PTCLDY    25  16  68 W6        30.14R WCI  18
FRANKFORT      CLEAR     24  16  71 CALM      30.14R
LOUISVILLE     CLEAR     29  14  53 W3        30.18R
LEBANON*         N/A     27  19  74 SW3       30.17R
GLASGOW*       CLEAR     23  23 100 CALM      30.19R
BOWLING GREEN  CLEAR     26  19  74 CALM      30.20R
$$

KYZ091>093-OHZ055-061-077-WVZ005-015-034-035-042-261100
...SOUTHERN OHIO/WEST VIRGINIA...

CITY           SKY/WX    TMP DP  RH WIND       PRES   REMARKS
COVINGTON      CLEAR     23  15  71 NW8       30.12R WCI  14
COLUMBUS       CLOUDY    30  17  58 W14       30.07R WCI  19
DAYTON         MOCLDY    26  15  63 NW10      30.09R WCI  16
WILMINGTON     CLOUDY    26  15  63 NW12      30.09R WCI  16
HUNTINGTON     CLEAR     29  18  63 SW6       30.11R WCI  23
CHARLESTON     CLOUDY    31  15  52 W8        30.10R WCI  23
PINEVILLE*       N/A     31  15  52 MISG      30.11R
BECKLEY        CLOUDY    26  14  60 W10       30.01R WCI  16
BLUEFIELD      CLOUDY    23  13  65 W12G21    30.00R WCI  12
LOGAN CO APT*  CLOUDY    30  18  59 CALM      30.08R
$$

VAZ002-007-008-TNZ017-027-036-066-071-261100
...SOUTHWEST VIRGINIA/EAST TENNESSEE...

CITY           SKY/WX    TMP DP  RH WIND       PRES   REMARKS
WISE*          CLEAR     27  18  69 CALM      30.05R
JONESVILLE*      N/A     25  23  93 CALM      30.15R
ABINGDON*      CLEAR     29  18  62 NW3       30.08R
BRISTOL        CLEAR     27  18  69 SW6       30.12R WCI  20
MORRISTOWN*    SUNNY     28  21  74 CALM      30.13R
SEVIERVILLE*   SUNNY     25  19  80 CALM      30.16R
KNOXVILLE      CLEAR     32  23  69 CALM      30.16R
LAFOLLETTE*    SUNNY     25  23  93 CALM      30.18R
OAK RIDGE      CLEAR     30  22  72 CALM      30.18R
CROSSVILLE     CLEAR     23  18  81 CALM      30.13R
NASHVILLE      CLEAR     30  22  72 S3        30.19R
$$

...KEY TO REMARKS...
VSB - VISIBILITY IN MILES
WCI - WIND CHILL INDEX
HX  - HEAT INDEX

$$



USA.gov is the U.S. government's official web portal to all federal, state and local government web resources and services.